K0SNA Weather Reports


Display with metric or nautical units.
time (UTC)temp
F
wind
direction
speed
MPH
gust
MPH
rain 1hr
in
rain 24hr
in
rain mn
in
humidity
%
barometer
mb
20260831132941 75 201 3.0 5.0 0.00 0.00 0.00 87 1009.5
20260831132436 75 252 2.0 7.0 0.00 0.00 0.00 88 1009.7
20260831131936 75 206 1.0 2.0 0.00 0.00 0.00 89 1009.7
20260831131431 74 200 0.0 2.0 0.00 0.00 0.00 90 1009.5
20260831130927 74 198 0.0 2.0 0.00 0.00 0.00 92 1009.3
20260831130422 73 199 0.0 1.0 0.00 0.00 0.00 93 1009.3
20260831125921 73 203 1.0 3.0 0.00 0.00 0.00 94 1009.3
20260831125416 73 212 2.0 5.0 0.00 0.00 0.00 94 1009.3
20260831124912 72 201 0.0 2.0 0.00 0.00 0.00 95 1009.0
20260831124408 72 203 3.0 5.0 0.00 0.00 0.00 96 1009.2
20260831123903 72 235 2.0 3.0 0.00 0.00 0.00 96 1009.1
20260831123401 72 223 1.0 2.0 0.00 0.00 0.00 96 1009.0
20260831122856 72 208 1.0 3.0 0.00 0.00 0.00 96 1008.9
20260831122352 71 230 1.0 5.0 0.00 0.00 0.00 96 1009.1
20260831121846 71 207 1.0 1.0 0.00 0.00 0.00 97 1009.0
20260831121342 71 214 0.0 0.0 0.00 0.00 0.00 96 1008.9
20260831120838 70 207 0.0 1.0 0.00 0.00 0.00 96 1008.9
20260831120332 70 207 0.0 1.0 0.00 0.00 0.00 96 1008.8
20260831115827 69 201 0.0 0.0 0.00 0.00 0.00 96 1008.7
20260831115324 69 201 0.0 0.0 0.00 0.00 0.00 96 1008.7
20260831114823 69 201 0.0 0.0 0.00 0.00 0.00 96 1008.7
20260831114322 70 201 0.0 0.0 0.00 0.00 0.00 96 1008.5
20260831113818 69 201 0.0 0.0 0.00 0.00 0.00 96 1008.3
20260831113318 69 201 0.0 0.0 0.00 0.00 0.00 96 1008.5
20260831112812 69 201 0.0 0.0 0.00 0.00 0.00 96 1008.3
20260831112307 70 201 0.0 0.0 0.00 0.00 0.00 96 1008.3
20260831111803 70 207 0.0 0.0 0.00 0.00 0.00 96 1008.2
20260831111259 70 207 0.0 0.0 0.00 0.00 0.00 96 1008.1
20260831110754 70 207 0.0 0.0 0.00 0.00 0.00 95 1008.1
20260831110249 70 215 0.0 0.0 0.00 0.00 0.00 95 1007.9
20260831105748 70 200 0.0 0.0 0.00 0.00 0.00 95 1008.0
20260831105244 71 200 0.0 0.0 0.00 0.00 0.00 95 1007.7
20260831104743 71 200 0.0 0.0 0.00 0.00 0.00 95 1007.8
20260831104240 71 205 0.0 0.0 0.00 0.00 0.00 95 1007.8
20260831103735 71 205 0.0 0.0 0.00 0.00 0.00 95 1008.0
20260831103231 71 205 0.0 0.0 0.00 0.00 0.00 95 1008.0
20260831102730 71 205 0.0 0.0 0.00 0.00 0.00 95 1008.1
20260831102225 71 207 0.0 0.0 0.00 0.00 0.00 94 1007.9
20260831101721 71 207 0.0 0.0 0.00 0.00 0.00 94 1007.8
20260831101216 71 207 0.0 0.0 0.00 0.00 0.00 94 1008.1
20260831100712 71 207 0.0 0.0 0.00 0.00 0.00 94 1007.9
20260831100208 71 208 0.0 0.0 0.00 0.00 0.00 94 1007.9
20260831095706 72 207 0.0 0.0 0.00 0.00 0.00 94 1007.7
20260831095201 72 213 0.0 0.0 0.00 0.00 0.00 94 1007.8
20260831094656 72 198 0.0 0.0 0.00 0.00 0.00 94 1007.9
20260831094152 72 198 0.0 0.0 0.00 0.00 0.00 94 1007.9
20260831093648 72 195 0.0 2.0 0.00 0.00 0.00 93 1007.8
20260831093144 72 193 0.0 0.0 0.00 0.00 0.00 93 1007.7
20260831092640 72 209 0.0 0.0 0.00 0.00 0.00 93 1007.9
20260831092135 72 203 0.0 0.0 0.00 0.00 0.00 93 1007.7
20260831091634 72 203 0.0 0.0 0.00 0.00 0.00 92 1007.7
20260831091130 72 202 0.0 0.0 0.00 0.00 0.00 92 1007.9
20260831090626 73 200 0.0 0.0 0.00 0.00 0.00 92 1007.7
20260831090122 73 200 0.0 0.0 0.00 0.00 0.00 92 1007.7
20260831085617 73 202 1.0 2.0 0.00 0.00 0.00 92 1007.8
20260831085112 73 215 1.0 1.0 0.00 0.00 0.00 92 1007.8
20260831084608 73 212 1.0 2.0 0.00 0.00 0.00 92 1007.8
20260831084104 73 225 0.0 0.0 0.00 0.00 0.00 92 1007.8
20260831083600 73 210 0.0 1.0 0.00 0.00 0.00 92 1007.8
20260831083054 73 210 0.0 1.0 0.00 0.00 0.00 92 1007.5
20260831082548 72 200 0.0 0.0 0.00 0.00 0.00 92 1007.7
20260831082043 72 205 0.0 0.0 0.00 0.00 0.00 92 1007.5
20260831081539 72 213 0.0 0.0 0.00 0.00 0.00 91 1007.6
20260831081034 72 199 0.0 0.0 0.00 0.00 0.00 91 1007.6
20260831080529 73 199 0.0 0.0 0.00 0.00 0.00 91 1007.6
20260831080024 73 199 0.0 0.0 0.00 0.00 0.00 90 1007.6
20260831075519 73 213 0.0 0.0 0.00 0.00 0.00 90 1007.9
20260831075015 73 197 0.0 0.0 0.00 0.00 0.00 90 1007.7
20260831074509 73 207 0.0 0.0 0.00 0.00 0.00 90 1007.6
20260831074008 73 166 0.0 0.0 0.00 0.00 0.00 90 1007.6
20260831073503 73 216 1.0 1.0 0.00 0.00 0.00 89 1007.7
20260831073002 73 207 0.0 0.0 0.00 0.00 0.00 89 1007.4
20260831072458 73 202 0.0 0.0 0.00 0.00 0.00 89 1007.6
20260831071954 73 203 0.0 0.0 0.00 0.00 0.00 89 1007.6
20260831071453 73 174 0.0 1.0 0.00 0.00 0.00 89 1007.6
20260831070947 73 192 0.0 2.0 0.00 0.00 0.00 89 1007.9
20260831070441 74 190 0.0 0.0 0.00 0.00 0.00 88 1007.8
20260831065941 74 204 0.0 2.0 0.00 0.00 0.00 88 1007.9
20260831065439 74 187 1.0 2.0 0.00 0.00 0.00 88 1007.9
20260831064934 74 163 1.0 2.0 0.00 0.00 0.00 88 1007.9
20260831064428 74 195 0.0 2.0 0.00 0.00 0.00 88 1008.2
20260831063925 74 194 0.0 1.0 0.00 0.00 0.00 88 1008.2
20260831063419 74 193 0.0 2.0 0.00 0.00 0.00 87 1008.1
20260831062914 74 181 0.0 1.0 0.00 0.00 0.00 87 1008.3
20260831062410 74 178 1.0 2.0 0.00 0.00 0.00 87 1008.4
20260831061908 74 203 0.0 2.0 0.00 0.00 0.00 87 1008.2
20260831061407 74 208 1.0 2.0 0.00 0.00 0.00 87 1008.5
20260831060903 74 199 0.0 0.0 0.00 0.00 0.00 87 1008.4
20260831060358 74 200 0.0 0.0 0.00 0.00 0.00 87 1008.5
20260831055857 74 202 0.0 2.0 0.00 0.00 0.00 87 1008.5
20260831055352 74 182 0.0 1.0 0.00 0.00 0.00 87 1008.4
20260831054848 74 171 1.0 2.0 0.00 0.00 0.00 87 1008.5
20260831054343 74 210 0.0 2.0 0.00 0.00 0.00 87 1008.6
20260831053842 74 194 0.0 2.0 0.00 0.00 0.00 87 1008.5
20260831053340 74 200 0.0 1.0 0.00 0.00 0.00 87 1008.8
20260831052835 74 191 0.0 2.0 0.00 0.00 0.00 86 1008.9
20260831052335 74 222 2.0 2.0 0.00 0.00 0.00 87 1009.0
20260831051833 74 196 0.0 0.0 0.00 0.00 0.00 86 1009.1
20260831051332 74 176 1.0 2.0 0.00 0.00 0.00 86 1009.0
20260831050827 74 177 0.0 2.0 0.00 0.00 0.00 86 1009.0
20260831050326 74 208 0.0 1.0 0.00 0.00 0.00 86 1009.2
20260831045820 74 198 0.0 0.0 0.00 0.00 0.00 86 1009.2
20260831045314 74 208 0.0 2.0 0.00 0.00 0.00 86 1009.2
20260831044809 74 192 0.0 1.0 0.00 0.00 0.00 86 1009.1
20260831044304 74 184 1.0 2.0 0.00 0.00 0.00 86 1009.2
20260831043801 74 207 0.0 1.0 0.00 0.00 0.00 85 1009.2
20260831043300 75 185 0.0 1.0 0.00 0.00 0.00 85 1009.3
20260831042755 75 187 0.0 0.0 0.00 0.00 0.00 85 1009.2
20260831042249 75 172 1.0 1.0 0.00 0.00 0.00 85 1009.1
20260831041745 75 231 1.0 2.0 0.00 0.00 0.00 85 1009.3
20260831041244 75 172 1.0 2.0 0.00 0.00 0.00 85 1009.4
20260831040738 75 182 1.0 2.0 0.00 0.00 0.00 85 1009.2
20260831040238 75 207 0.0 0.0 0.00 0.00 0.00 84 1009.1
20260831035736 75 200 1.0 5.0 0.00 0.00 0.00 84 1009.1
20260831035235 75 166 2.0 3.0 0.00 0.00 0.00 84 1009.1
20260831034734 75 199 1.0 5.0 0.00 0.00 0.00 84 1009.3
20260831034231 75 204 2.0 5.0 0.00 0.00 0.00 84 1009.0
20260831033726 75 168 3.0 5.0 0.00 0.00 0.00 84 1009.2
20260831033225 75 205 2.0 3.0 0.00 0.00 0.00 83 1009.1
20260831032721 75 201 1.0 5.0 0.00 0.00 0.00 83 1009.1
20260831032216 75 177 0.0 3.0 0.00 0.00 0.00 83 1009.3
20260831031716 76 234 4.0 5.0 0.00 0.00 0.00 83 1009.2
20260831031211 76 184 1.0 5.0 0.00 0.00 0.00 82 1009.2
20260831030710 76 188 1.0 2.0 0.00 0.00 0.00 82 1009.0
20260831030209 76 164 2.0 3.0 0.00 0.00 0.00 82 1009.0
20260831025702 76 199 2.0 5.0 0.00 0.00 0.00 81 1008.8
20260831025157 76 131 2.0 3.0 0.00 0.00 0.00 81 1009.0
20260831024654 77 181 2.0 3.0 0.00 0.00 0.00 80 1009.2
20260831024151 77 180 2.0 5.0 0.00 0.00 0.00 80 1009.1
20260831023650 77 177 3.0 3.0 0.00 0.00 0.00 80 1009.2
20260831023149 77 146 2.0 2.0 0.00 0.00 0.00 79 1009.1
20260831022644 77 128 1.0 7.0 0.00 0.00 0.00 79 1009.0
20260831022134 77 145 2.0 5.0 0.00 0.00 0.00 79 1009.0
20260831021633 77 195 1.0 3.0 0.00 0.00 0.00 79 1009.2
20260831021128 78 136 3.0 5.0 0.00 0.00 0.00 78 1009.2
20260831020624 78 208 3.0 8.0 0.00 0.00 0.00 78 1009.1
20260831020118 78 134 3.0 5.0 0.00 0.00 0.00 77 1009.4
20260831015614 78 201 2.0 3.0 0.00 0.00 0.00 77 1009.2
20260831015108 78 167 4.0 6.0 0.00 0.00 0.00 76 1009.2
20260831014603 79 204 1.0 3.0 0.00 0.00 0.00 76 1009.3
20260831014058 79 171 2.0 2.0 0.00 0.00 0.00 75 1009.4
20260831013555 79 190 1.0 3.0 0.00 0.00 0.00 75 1009.2
20260831013054 79 191 2.0 5.0 0.00 0.00 0.00 74 1009.0
20260831012549 80 141 5.0 7.0 0.00 0.00 0.00 73 1009.2
20260831012044 80 201 2.0 5.0 0.00 0.00 0.00 72 1009.0
20260831011543 80 202 0.0 2.0 0.00 0.00 0.00 72 1009.0
20260831011039 80 190 2.0 3.0 0.00 0.00 0.00 71 1008.9
20260831010534 81 198 5.0 7.0 0.00 0.00 0.00 69 1008.9
20260831010030 81 179 2.0 3.0 0.00 0.00 0.00 68 1008.5
20260831005525 82 170 3.0 10.0 0.00 0.00 0.00 68 1008.5
20260831005025 82 162 2.0 6.0 0.00 0.00 0.00 67 1008.6
20260831004521 82 163 1.0 8.0 0.00 0.00 0.00 67 1008.5
20260831004016 83 157 4.0 6.0 0.00 0.00 0.00 67 1008.5
20260831003513 83 208 3.0 3.0 0.00 0.00 0.00 66 1008.5
20260831003008 83 163 3.0 7.0 0.00 0.00 0.00 66 1008.4
20260831002506 83 178 2.0 3.0 0.00 0.00 0.00 67 1008.2
20260831002001 84 147 2.0 5.0 0.00 0.00 0.00 67 1008.1
20260831001456 84 171 2.0 5.0 0.00 0.00 0.00 68 1008.0
20260831000954 84 197 3.0 6.0 0.00 0.00 0.00 68 1008.0
20260831000449 85 182 1.0 3.0 0.00 0.00 0.00 65 1007.9
20260830235947 85 146 4.0 6.0 0.00 0.00 0.00 64 1008.1
20260830235443 85 197 1.0 5.0 0.00 0.00 0.00 66 1008.0
20260830234938 85 224 3.0 6.0 0.00 0.00 0.00 68 1007.7
20260830234433 85 152 2.0 5.0 0.00 0.00 0.00 68 1007.9
20260830233929 86 141 3.0 3.0 0.00 0.00 0.00 66 1007.9
20260830233424 85 192 6.0 10.0 0.00 0.00 0.00 65 1008.0
20260830232920 85 132 3.0 6.0 0.00 0.00 0.00 66 1008.1
20260830232415 86 184 2.0 11.0 0.00 0.00 0.00 67 1008.2
20260830231912 86 150 5.0 6.0 0.00 0.00 0.00 66 1008.0
20260830231407 86 131 2.0 5.0 0.00 0.00 0.00 66 1008.0
20260830230906 86 222 2.0 3.0 0.00 0.00 0.00 66 1008.2
20260830230402 86 223 1.0 3.0 0.00 0.00 0.00 66 1008.1
20260830225901 86 192 4.0 6.0 0.00 0.00 0.00 66 1007.9
20260830225356 86 94 6.0 7.0 0.00 0.00 0.00 65 1008.1
20260830224850 86 155 4.0 6.0 0.00 0.00 0.00 66 1008.0
20260830224344 86 134 4.0 7.0 0.00 0.00 0.00 66 1007.7
20260830223841 86 194 5.0 8.0 0.00 0.00 0.00 69 1008.0
20260830223338 86 179 2.0 2.0 0.00 0.00 0.00 71 1007.9
20260830222836 86 189 1.0 3.0 0.00 0.00 0.00 71 1007.9
20260830222332 86 148 1.0 2.0 0.00 0.00 0.00 71 1007.6
20260830221827 86 130 2.0 3.0 0.00 0.00 0.00 71 1007.9
20260830221324 86 190 0.0 3.0 0.00 0.00 0.00 71 1007.9
20260830220824 86 188 2.0 5.0 0.00 0.00 0.00 71 1007.9
20260830220324 86 107 4.0 6.0 0.00 0.00 0.00 70 1008.0
20260830215821 86 61 4.0 5.0 0.00 0.00 0.00 69 1007.9
20260830215316 85 125 3.0 3.0 0.00 0.00 0.00 71 1008.0
20260830214811 85 117 1.0 3.0 0.00 0.00 0.00 72 1007.8
20260830214306 85 66 3.0 3.0 0.00 0.00 0.00 71 1007.9
20260830213806 85 153 3.0 7.0 0.00 0.00 0.00 71 1007.9
20260830213301 85 180 0.0 2.0 0.00 0.00 0.00 71 1007.9
20260830212757 85 159 1.0 6.0 0.00 0.00 0.00 71 1008.0
20260830212253 85 171 2.0 6.0 0.00 0.00 0.00 70 1008.3
20260830211751 85 190 1.0 3.0 0.00 0.00 0.00 71 1008.0
20260830211251 85 104 2.0 3.0 0.00 0.00 0.00 71 1008.1
20260830210747 85 92 4.0 5.0 0.00 0.00 0.00 71 1008.5
20260830210246 85 127 2.0 7.0 0.00 0.00 0.00 71 1008.4
20260830205743 85 167 1.0 3.0 0.00 0.00 0.00 70 1008.4
20260830205238 85 95 2.0 6.0 0.00 0.00 0.00 70 1008.3
20260830204735 85 163 3.0 6.0 0.00 0.00 0.00 70 1008.5
20260830204233 85 178 2.0 8.0 0.00 0.00 0.00 70 1008.6
20260830203729 85 191 3.0 6.0 0.00 0.00 0.00 70 1008.7
20260830203225 86 142 3.0 8.0 0.00 0.00 0.00 69 1008.7
20260830202723 85 139 3.0 10.0 0.00 0.00 0.00 70 1008.9
20260830202219 85 152 4.0 6.0 0.00 0.00 0.00 69 1008.7
20260830201718 86 175 4.0 6.0 0.00 0.00 0.00 69 1009.0
20260830201214 85 57 2.0 5.0 0.00 0.00 0.00 69 1009.0
20260830200709 84 165 2.0 6.0 0.00 0.00 0.00 71 1008.8
20260830200208 85 117 2.0 2.0 0.00 0.00 0.00 69 1008.8
20260830195704 85 152 3.0 6.0 0.00 0.00 0.00 70 1008.7
20260830195202 85 194 1.0 3.0 0.00 0.00 0.00 68 1008.9
20260830194701 86 166 0.0 5.0 0.00 0.00 0.00 69 1008.8
20260830194155 85 174 0.0 7.0 0.00 0.00 0.00 69 1008.8
20260830193650 86 176 2.0 6.0 0.00 0.00 0.00 67 1008.9
20260830193145 86 152 3.0 5.0 0.00 0.00 0.00 67 1008.8
20260830192640 84 135 3.0 3.0 0.00 0.00 0.00 70 1008.7
20260830192135 85 98 3.0 5.0 0.00 0.00 0.00 69 1008.8
20260830191631 84 68 2.0 6.0 0.00 0.00 0.00 71 1008.6
20260830191126 83 151 3.0 5.0 0.00 0.00 0.00 72 1008.9
20260830190621 84 64 3.0 5.0 0.00 0.00 0.00 71 1008.9
20260830190115 84 59 5.0 7.0 0.00 0.00 0.00 70 1009.0
20260830185609 84 71 3.0 9.0 0.00 0.00 0.00 71 1008.7
20260830185105 83 191 4.0 9.0 0.00 0.00 0.00 71 1009.0
20260830184603 83 199 2.0 7.0 0.00 0.00 0.00 72 1009.0
20260830184059 83 330 2.0 6.0 0.00 0.00 0.00 72 1009.0
20260830183553 82 57 3.0 6.0 0.00 0.00 0.00 74 1009.3
20260830183049 82 72 3.0 6.0 0.00 0.00 0.00 74 1009.5
20260830182544 82 191 4.0 6.0 0.00 0.00 0.00 73 1009.5
20260830182040 81 113 3.0 6.0 0.00 0.00 0.00 75 1009.4
20260830181537 80 164 1.0 3.0 0.00 0.00 0.00 76 1009.4
20260830181036 80 133 5.0 7.0 0.00 0.00 0.00 75 1009.5
20260830180535 79 88 3.0 9.0 0.00 0.00 0.00 77 1009.8
20260830180035 79 88 4.0 6.0 0.00 0.00 0.00 77 1009.7
20260830175533 79 173 1.0 9.0 0.00 0.00 0.00 77 1009.4
20260830175029 80 144 3.0 7.0 0.00 0.00 0.00 77 1009.7
20260830174524 80 152 1.0 3.0 0.00 0.00 0.00 77 1010.0
20260830174019 79 163 3.0 3.0 0.00 0.00 0.00 77 1010.0
20260830173515 79 175 3.0 8.0 0.00 0.00 0.00 78 1010.0
20260830173010 78 195 1.0 6.0 0.00 0.00 0.00 78 1010.3
20260830172507 78 106 3.0 5.0 0.00 0.00 0.00 78 1010.2
20260830172003 78 183 1.0 5.0 0.00 0.00 0.00 78 1010.6
20260830171458 78 122 1.0 5.0 0.00 0.00 0.00 78 1010.4
20260830170957 78 175 4.0 7.0 0.00 0.00 0.00 78 1010.3
20260830170452 78 181 1.0 3.0 0.00 0.00 0.00 79 1010.3
20260830165950 78 130 2.0 5.0 0.00 0.00 0.00 79 1010.2
20260830165447 78 139 4.0 7.0 0.00 0.00 0.00 79 1010.1
20260830164942 78 172 4.0 5.0 0.00 0.00 0.00 78 1010.2
20260830164438 78 162 1.0 3.0 0.00 0.00 0.00 78 1010.2
20260830163934 78 133 1.0 2.0 0.00 0.00 0.00 79 1010.2
20260830163431 77 156 1.0 3.0 0.00 0.00 0.00 79 1010.1
20260830162930 77 108 4.0 5.0 0.00 0.00 0.00 79 1010.0
20260830162426 77 180 0.0 2.0 0.00 0.00 0.00 80 1009.8
20260830161925 77 177 2.0 9.0 0.00 0.00 0.00 80 1009.7
20260830161420 77 125 3.0 3.0 0.00 0.00 0.00 80 1009.5
20260830160915 77 87 1.0 5.0 0.00 0.00 0.00 79 1009.3
20260830160411 77 69 3.0 3.0 0.00 0.00 0.00 79 1009.4
20260830155905 78 145 1.0 3.0 0.00 0.00 0.00 79 1009.3
20260830155402 77 115 3.0 3.0 0.00 0.00 0.00 79 1009.1
20260830154852 78 145 1.0 2.0 0.00 0.00 0.00 78 1009.3
20260830154347 77 164 1.0 5.0 0.00 0.00 0.00 79 1009.3
20260830153844 77 58 3.0 3.0 0.00 0.00 0.00 80 1009.5
20260830153339 76 188 1.0 2.0 0.00 0.00 0.00 81 1009.2
20260830152837 76 135 1.0 3.0 0.00 0.00 0.00 82 1009.4
20260830152332 76 171 0.0 2.0 0.00 0.00 0.00 81 1009.4
20260830151827 76 154 1.0 3.0 0.00 0.00 0.00 81 1009.2
20260830151326 76 118 2.0 6.0 0.00 0.00 0.00 81 1009.3
20260830150821 75 153 3.0 7.0 0.00 0.00 0.00 81 1009.8
20260830150321 75 164 1.0 3.0 0.00 0.00 0.00 81 1009.3
20260830145815 75 165 2.0 6.0 0.00 0.00 0.00 82 1009.3
20260830145311 74 131 3.0 6.0 0.00 0.00 0.00 83 1009.2
20260830144806 73 168 3.0 3.0 0.00 0.00 0.00 85 1009.5
20260830144301 73 153 2.0 5.0 0.00 0.00 0.00 86 1009.2
20260830143757 72 143 2.0 3.0 0.00 0.00 0.00 87 1009.3
20260830143256 72 105 1.0 2.0 0.00 0.00 0.00 87 1009.2
20260830142751 72 103 1.0 2.0 0.00 0.00 0.00 87 1009.4
20260830142246 72 106 1.0 3.0 0.00 0.00 0.00 87 1009.5
20260830141742 72 178 0.0 1.0 0.00 0.00 0.00 87 1009.5
20260830141236 72 131 1.0 3.0 0.00 0.00 0.00 88 1009.8
20260830140731 71 127 3.0 6.0 0.00 0.00 0.00 88 1009.9
20260830140226 71 129 0.0 2.0 0.00 0.00 0.00 88 1009.9
20260830135721 72 122 2.0 3.0 0.00 0.00 0.00 87 1010.2
20260830135216 72 135 2.0 2.0 0.00 0.00 0.00 87 1010.2
20260830134712 72 167 0.0 1.0 0.00 0.00 0.00 88 1010.0
20260830134207 71 148 1.0 2.0 0.00 0.00 0.00 89 1010.1
20260830133703 70 147 1.0 2.0 0.00 0.00 0.00 90 1009.9